QPF
0.05 0.05 0.06 0.06 0.07 0.07 0.07 0.07 0.09 0.10 0.09 0.08 0.07 0.06 0.05 0.06 0.09 0.10 0.08 0.06 0.04 0.03 0.03 0.02 0.02 0.02 0.03 0.03 0.04 0.04 0.04 0.04 0.04 0.04 0.04 0.04 0.03 0.03
0.05 0.06 0.06 0.06 0.07 0.08 0.07 0.06 0.07 0.09 0.08 0.06 0.05 0.04 0.04 0.04 0.05 0.08 0.09 0.08 0.05 0.03 0.03 0.03 0.02 0.02 0.02 0.02 0.02 0.03 0.03 0.03 0.03 0.03 0.03 0.03 0.03 0.03
0.05 0.05 0.05 0.05 0.06 0.05 0.07 0.07 0.07 0.08 0.08 0.06 0.06 0.05 0.05 0.05 0.04 0.05 0.06 0.06 0.06 0.05 0.03 0.02 0.03 0.03 0.02 0.02 0.02 0.02 0.02 0.03 0.04 0.04 0.03 0.03 0.03 0.03
0.04 0.04 0.04 0.04 0.04 0.04 0.06 0.07 0.08 0.09 0.08 0.07 0.07 0.08 0.06 0.05 0.06 0.06 0.04 0.04 0.05 0.06 0.04 0.03 0.03 0.03 0.02 0.02 0.02 0.02 0.02 0.03 0.03 0.04 0.05 0.04 0.04 0.04
0.04 0.05 0.04 0.05 0.04 0.04 0.05 0.06 0.08 0.09 0.10 0.08 0.07 0.09 0.09 0.07 0.07 0.06 0.05 0.06 0.04 0.04 0.04 0.04 0.04 0.03 0.04 0.03 0.03 0.03 0.03 0.03 0.03 0.03 0.04 0.05 0.05 0.04
0.04 0.04 0.05 0.05 0.05 0.04 0.04 0.04 0.05 0.06 0.08 0.10 0.10 0.09 0.08 0.10 0.08 0.07 0.07 0.06 0.05 0.03 0.04 0.04 0.04 0.03 0.03 0.03 0.04 0.04 0.05 0.05 0.05 0.05 0.04 0.04 0.04 0.04
0.05 0.05 0.04 0.04 0.04 0.05 0.04 0.04 0.05 0.06 0.06 0.08 0.10 0.10 0.08 0.10 0.08 0.07 0.08 0.08 0.06 0.05 0.05 0.04 0.05 0.05 0.05 0.04 0.04 0.04 0.06 0.07 0.07 0.07 0.07 0.07 0.06 0.05
0.07 0.05 0.04 0.05 0.05 0.04 0.03 0.03 0.04 0.04 0.05 0.06 0.07 0.08 0.07 0.07 0.07 0.07 0.08 0.09 0.07 0.05 0.06 0.05 0.06 0.08 0.07 0.07 0.06 0.05 0.05 0.06 0.07 0.08 0.08 0.09 0.09 0.08
0.07 0.07 0.05 0.04 0.04 0.05 0.04 0.03 0.03 0.03 0.04 0.04 0.05 0.05 0.06 0.06 0.07 0.07 0.08 0.09 0.07 0.06 0.07 0.06 0.07 0.08 0.07 0.07 0.07 0.07 0.06 0.06 0.07 0.08 0.06 0.06 0.06 0.07
0.07 0.07 0.07 0.06 0.06 0.06 0.05 0.04 0.04 0.06 0.06 0.04 0.04 0.06 0.05 0.06 0.08 0.08 0.09 0.09 0.07 0.06 0.07 0.08 0.07 0.07 0.06 0.06 0.06 0.05 0.05 0.04 0.04 0.05 0.06 0.05 0.05 0.06
0.05 0.05 0.05 0.04 0.03 0.03 0.04 0.05 0.06 0.07 0.06 0.05 0.04 0.04 0.03 0.03 0.06 0.10 0.12 0.11 0.09 0.07 0.07 0.08 0.07 0.06 0.06 0.06 0.04 0.04 0.05 0.05 0.04 0.04 0.04 0.04 0.05 0.05
0.06 0.05 0.04 0.03 0.03 0.03 0.04 0.06 0.05 0.05 0.06 0.05 0.04 0.02 0.02 0.03 0.04 0.06 0.08 0.09 0.08 0.07 0.07 0.08 0.07 0.07 0.07 0.06 0.05 0.04 0.05 0.06 0.06 0.06 0.05 0.05 0.05 0.05
0.05 0.04 0.03 0.02 0.02 0.03 0.04 0.05 0.05 0.06 0.07 0.06 0.05 0.04 0.04 0.04 0.03 0.03 0.04 0.06 0.07 0.07 0.05 0.07 0.08 0.08 0.07 0.06 0.05 0.05 0.05 0.05 0.06 0.07 0.08 0.08 0.07 0.07
0.03 0.03 0.02 0.02 0.02 0.03 0.03 0.04 0.04 0.05 0.07 0.08 0.08 0.06 0.06 0.05 0.05 0.05 0.05 0.05 0.06 0.05 0.05 0.06 0.07 0.06 0.06 0.05 0.04 0.04 0.04 0.04 0.05 0.07 0.08 0.09 0.10 0.09
0.02 0.02 0.02 0.02 0.02 0.03 0.04 0.04 0.04 0.05 0.06 0.07 0.07 0.07 0.07 0.07 0.06 0.05 0.05 0.05 0.05 0.04 0.04 0.05 0.05 0.06 0.07 0.05 0.04 0.03 0.03 0.02 0.03 0.05 0.06 0.07 0.09 0.10
0.04 0.02 0.03 0.04 0.05 0.05 0.05 0.06 0.06 0.05 0.04 0.05 0.07 0.08 0.07 0.08 0.06 0.05 0.04 0.05 0.05 0.05 0.04 0.04 0.04 0.06 0.06 0.06 0.05 0.04 0.03 0.02 0.02 0.03 0.04 0.05 0.08 0.09
0.03 0.03 0.03 0.03 0.05 0.06 0.04 0.04 0.04 0.04 0.04 0.04 0.05 0.06 0.07 0.07 0.06 0.05 0.05 0.05 0.04 0.04 0.04 0.04 0.04 0.04 0.05 0.06 0.05 0.03 0.03 0.03 0.03 0.03 0.04 0.06 0.06 0.07
0.02 0.02 0.02 0.02 0.03 0.03 0.03 0.04 0.03 0.03 0.03 0.03 0.03 0.04 0.05 0.06 0.06 0.05 0.05 0.05 0.05 0.05 0.04 0.04 0.04 0.05 0.06 0.05 0.04 0.04 0.04 0.04 0.04 0.04 0.05 0.06 0.06 0.05
0.01 0.01 0.01 0.01 0.02 0.02 0.03 0.03 0.03 0.03 0.02 0.02 0.02 0.03 0.04 0.04 0.04 0.05 0.05 0.05 0.05 0.06 0.05 0.04 0.05 0.06 0.07 0.07 0.05 0.05 0.05 0.04 0.05 0.05 0.06 0.06 0.07 0.06
0.01 0.01 0.01 0.01 0.02 0.02 0.02 0.03 0.03 0.03 0.03 0.03 0.03 0.03 0.03 0.03 0.03 0.04 0.05 0.05 0.05 0.05 0.05 0.05 0.05 0.05 0.06 0.06 0.05 0.04 0.04 0.04 0.05 0.05 0.05 0.06 0.06 0.04
0.02 0.02 0.02 0.02 0.02 0.03 0.04 0.04 0.04 0.04 0.04 0.04 0.04 0.03 0.03 0.03 0.04 0.04 0.05 0.04 0.04 0.04 0.04 0.04 0.04 0.04 0.04 0.05 0.05 0.03 0.03 0.03 0.04 0.03 0.04 0.05 0.04 0.03
0.02 0.02 0.02 0.02 0.02 0.03 0.03 0.03 0.03 0.02 0.02 0.03 0.03 0.03 0.03 0.04 0.05 0.04 0.04 0.04 0.04 0.04 0.03 0.03 0.03 0.03 0.04 0.05 0.04 0.03 0.03 0.02 0.02 0.02 0.02 0.03 0.03 0.03
0.02 0.02 0.02 0.02 0.02 0.03 0.02 0.02 0.01 0.01 0.01 0.02 0.03 0.03 0.04 0.05 0.05 0.05 0.05 0.05 0.04 0.04 0.04 0.03 0.03 0.03 0.04 0.05 0.03 0.02 0.02 0.03 0.03 0.02 0.02 0.01 0.01 0.01
MSLP
1016.22 1016.35 1016.49 1016.63 1016.74 1016.80 1016.78 1016.68 1016.50 1016.24 1015.92 1015.56 1015.19 1014.85 1014.55 1014.32 1014.18 1014.11 1014.13 1014.21 1014.34 1014.48 1014.62 1014.74 1014.81 1014.84 1014.81 1014.73 1014.62 1014.51 1014.40 1014.32 1014.29 1014.29 1014.34 1014.43 1014.53 1014.65
1015.97 1016.08 1016.20 1016.31 1016.42 1016.49 1016.51 1016.46 1016.34 1016.14 1015.87 1015.55 1015.19 1014.82 1014.48 1014.18 1013.94 1013.78 1013.69 1013.69 1013.75 1013.86 1013.99 1014.13 1014.24 1014.32 1014.36 1014.36 1014.33 1014.27 1014.22 1014.17 1014.15 1014.16 1014.20 1014.26 1014.33 1014.41
1015.66 1015.74 1015.84 1015.94 1016.05 1016.14 1016.19 1016.20 1016.14 1016.02 1015.82 1015.55 1015.23 1014.87 1014.50 1014.15 1013.84 1013.58 1013.40 1013.30 1013.27 1013.31 1013.40 1013.51 1013.63 1013.74 1013.82 1013.87 1013.90 1013.91 1013.91 1013.92 1013.94 1013.97 1014.02 1014.08 1014.14 1014.20
1015.36 1015.41 1015.49 1015.58 1015.68 1015.78 1015.86 1015.92 1015.92 1015.87 1015.74 1015.54 1015.27 1014.94 1014.57 1014.19 1013.83 1013.50 1013.24 1013.04 1012.92 1012.88 1012.89 1012.95 1013.03 1013.12 1013.21 1013.29 1013.36 1013.42 1013.48 1013.54 1013.62 1013.70 1013.78 1013.86 1013.93 1014.00
1015.11 1015.15 1015.19 1015.26 1015.34 1015.44 1015.53 1015.61 1015.66 1015.66 1015.59 1015.45 1015.23 1014.95 1014.61 1014.23 1013.85 1013.48 1013.15 1012.88 1012.68 1012.54 1012.47 1012.44 1012.46 1012.50 1012.56 1012.63 1012.71 1012.80 1012.91 1013.03 1013.16 1013.30 1013.45 1013.58 1013.69 1013.79
1014.94 1014.94 1014.96 1014.99 1015.05 1015.11 1015.19 1015.27 1015.33 1015.35 1015.32 1015.23 1015.06 1014.82 1014.52 1014.18 1013.81 1013.43 1013.08 1012.76 1012.49 1012.27 1012.11 1011.99 1011.92 1011.89 1011.89 1011.91 1011.98 1012.08 1012.21 1012.37 1012.57 1012.78 1012.99 1013.20 1013.38 1013.53
1014.79 1014.77 1014.75 1014.74 1014.75 1014.78 1014.82 1014.86 1014.91 1014.93 1014.91 1014.84 1014.71 1014.52 1014.27 1013.97 1013.63 1013.28 1012.94 1012.60 1012.29 1012.02 1011.78 1011.58 1011.42 1011.29 1011.21 1011.17 1011.19 1011.26 1011.40 1011.59 1011.83 1012.10 1012.39 1012.67 1012.93 1013.16
1014.59 1014.54 1014.50 1014.45 1014.41 1014.39 1014.38 1014.38 1014.39 1014.38 1014.35 1014.29 1014.18 1014.02 1013.82 1013.57 1013.29 1012.99 1012.67 1012.35 1012.03 1011.73 1011.44 1011.17 1010.92 1010.71 1010.54 1010.42 1010.37 1010.40 1010.51 1010.71 1010.96 1011.28 1011.62 1011.98 1012.31 1012.61
1014.25 1014.20 1014.13 1014.05 1013.98 1013.92 1013.86 1013.82 1013.78 1013.73 1013.68 1013.61 1013.51 1013.38 1013.21 1013.01 1012.79 1012.54 1012.27 1011.98 1011.69 1011.38 1011.06 1010.74 1010.43 1010.14 1009.89 1009.69 1009.57 1009.54 1009.61 1009.77 1010.02 1010.34 1010.71 1011.11 1011.49 1011.85
1013.75 1013.69 1013.61 1013.53 1013.44 1013.35 1013.27 1013.19 1013.11 1013.04 1012.96 1012.87 1012.76 1012.64 1012.50 1012.34 1012.16 1011.97 1011.75 1011.51 1011.24 1010.95 1010.63 1010.29 1009.95 1009.61 1009.29 1009.02 1008.83 1008.73 1008.73 1008.84 1009.05 1009.35 1009.71 1010.10 1010.50 1010.87
1013.08 1013.03 1012.96 1012.89 1012.80 1012.72 1012.62 1012.53 1012.44 1012.34 1012.24 1012.13 1012.02 1011.89 1011.77 1011.63 1011.49 1011.33 1011.15 1010.95 1010.73 1010.46 1010.17 1009.83 1009.48 1009.11 1008.76 1008.45 1008.19 1008.03 1007.96 1007.99 1008.14 1008.37 1008.68 1009.03 1009.39 1009.74
1012.32 1012.29 1012.25 1012.19 1012.13 1012.05 1011.97 1011.88 1011.78 1011.68 1011.57 1011.45 1011.32 1011.19 1011.06 1010.93 1010.80 1010.67 1010.52 1010.36 1010.17 1009.95 1009.68 1009.38 1009.04 1008.68 1008.32 1007.98 1007.69 1007.47 1007.33 1007.29 1007.35 1007.50 1007.72 1007.98 1008.27 1008.56
1011.59 1011.57 1011.54 1011.51 1011.46 1011.40 1011.34 1011.26 1011.17 1011.06 1010.95 1010.82 1010.69 1010.55 1010.41 1010.28 1010.15 1010.03 1009.90 1009.76 1009.60 1009.42 1009.20 1008.94 1008.64 1008.31 1007.98 1007.64 1007.34 1007.08 1006.89 1006.78 1006.74 1006.79 1006.90 1007.06 1007.25 1007.45
1010.99 1010.96 1010.93 1010.89 1010.84 1010.79 1010.73 1010.65 1010.57 1010.47 1010.35 1010.23 1010.09 1009.95 1009.80 1009.66 1009.53 1009.40 1009.29 1009.17 1009.04 1008.89 1008.72 1008.51 1008.27 1008.00 1007.71 1007.41 1007.11 1006.84 1006.62 1006.44 1006.33 1006.28 1006.28 1006.33 1006.41 1006.50
1010.55 1010.50 1010.43 1010.36 1010.28 1010.20 1010.12 1010.03 1009.94 1009.84 1009.73 1009.61 1009.48 1009.34 1009.20 1009.06 1008.92 1008.80 1008.69 1008.58 1008.48 1008.37 1008.24 1008.10 1007.92 1007.72 1007.48 1007.23 1006.97 1006.71 1006.46 1006.25 1006.08 1005.94 1005.85 1005.79 1005.75 1005.74
1010.28 1010.17 1010.03 1009.89 1009.75 1009.61 1009.48 1009.36 1009.24 1009.14 1009.03 1008.92 1008.81 1008.68 1008.56 1008.43 1008.31 1008.20 1008.09 1008.01 1007.93 1007.85 1007.77 1007.68 1007.56 1007.42 1007.25 1007.05 1006.83 1006.60 1006.35 1006.12 1005.90 1005.70 1005.53 1005.39 1005.26 1005.15
1010.09 1009.89 1009.66 1009.42 1009.18 1008.95 1008.75 1008.58 1008.44 1008.32 1008.22 1008.13 1008.05 1007.96 1007.87 1007.78 1007.68 1007.59 1007.51 1007.44 1007.38 1007.34 1007.29 1007.24 1007.17 1007.08 1006.96 1006.81 1006.63 1006.42 1006.19 1005.95 1005.70 1005.46 1005.24 1005.03 1004.83 1004.66
1009.85 1009.56 1009.23 1008.87 1008.52 1008.20 1007.92 1007.70 1007.53 1007.40 1007.32 1007.27 1007.23 1007.19 1007.16 1007.11 1007.05 1007.00 1006.94 1006.89 1006.85 1006.82 1006.79 1006.76 1006.72 1006.66 1006.57 1006.44 1006.29 1006.09 1005.87 1005.63 1005.37 1005.10 1004.84 1004.59 1004.36 1004.14
1009.46 1009.08 1008.65 1008.19 1007.75 1007.35 1007.01 1006.74 1006.55 1006.44 1006.39 1006.38 1006.40 1006.43 1006.45 1006.46 1006.45 1006.43 1006.40 1006.36 1006.32 1006.29 1006.25 1006.22 1006.18 1006.12 1006.03 1005.92 1005.76 1005.57 1005.35 1005.10 1004.83 1004.55 1004.27 1004.00 1003.74 1003.49
1008.84 1008.40 1007.90 1007.38 1006.88 1006.43 1006.06 1005.78 1005.61 1005.52 1005.52 1005.57 1005.65 1005.74 1005.82 1005.88 1005.91 1005.91 1005.89 1005.85 1005.80 1005.74 1005.68 1005.62 1005.55 1005.46 1005.36 1005.22 1005.06 1004.86 1004.62 1004.36 1004.08 1003.79 1003.50 1003.21 1002.94 1002.68
1008.00 1007.53 1007.01 1006.47 1005.97 1005.52 1005.17 1004.92 1004.79 1004.75 1004.80 1004.90 1005.04 1005.18 1005.30 1005.39 1005.44 1005.44 1005.41 1005.34 1005.26 1005.16 1005.06 1004.95 1004.83 1004.70 1004.56 1004.39 1004.20 1003.98 1003.74 1003.46 1003.18 1002.88 1002.58 1002.29 1002.00 1001.74
1007.01 1006.56 1006.06 1005.57 1005.11 1004.72 1004.43 1004.24 1004.17 1004.19 1004.29 1004.43 1004.60 1004.76 1004.90 1004.98 1005.01 1004.99 1004.92 1004.81 1004.67 1004.52 1004.36 1004.20 1004.03 1003.86 1003.68 1003.48 1003.27 1003.04 1002.78 1002.50 1002.22 1001.92 1001.62 1001.32 1001.03 1000.75
1005.99 1005.59 1005.16 1004.75 1004.39 1004.10 1003.90 1003.80 1003.80 1003.87 1004.01 1004.17 1004.34 1004.49 1004.59 1004.63 1004.61 1004.53 1004.39 1004.22 1004.02 1003.81 1003.59 1003.38 1003.18 1002.97 1002.77 1002.56 1002.35 1002.11 1001.86 1001.60 1001.32 1001.03 1000.74 1000.45 1000.15 999.86
Thickness
5649 5649 5649 5651 5652 5653 5652 5651 5647 5646 5649 5654 5657 5662 5663 5662 5661 5660 5660 5659 5658 5657 5657 5656 5656 5655 5655 5655 5655 5655 5654 5653 5652 5651 5651 5651 5651 5651
5644 5643 5644 5645 5646 5647 5647 5647 5645 5643 5643 5648 5651 5655 5655 5655 5655 5654 5653 5653 5652 5651 5651 5650 5650 5649 5650 5649 5649 5649 5649 5648 5647 5646 5646 5646 5646 5646
5638 5637 5638 5639 5639 5640 5641 5641 5641 5640 5638 5642 5645 5647 5648 5648 5648 5648 5647 5647 5647 5646 5645 5645 5644 5644 5643 5644 5643 5642 5643 5643 5642 5642 5641 5641 5641 5642
5633 5632 5632 5634 5633 5634 5634 5634 5635 5635 5633 5633 5636 5638 5639 5641 5641 5641 5641 5642 5641 5641 5640 5640 5639 5639 5638 5638 5638 5637 5637 5637 5637 5637 5637 5637 5637 5637
5630 5628 5628 5627 5627 5628 5628 5628 5628 5630 5629 5628 5628 5630 5631 5633 5634 5634 5635 5635 5635 5634 5633 5633 5633 5634 5634 5634 5633 5633 5633 5633 5633 5633 5633 5633 5633 5633
5627 5626 5625 5623 5623 5623 5622 5622 5622 5622 5622 5622 5622 5622 5623 5625 5626 5624 5625 5626 5626 5627 5627 5627 5628 5628 5629 5629 5629 5628 5628 5628 5629 5628 5628 5628 5629 5629
5624 5622 5622 5620 5619 5618 5617 5616 5616 5615 5615 5615 5614 5615 5615 5615 5616 5616 5615 5616 5618 5619 5619 5621 5622 5622 5622 5623 5623 5624 5624 5624 5624 5624 5624 5624 5624 5625
5620 5619 5618 5616 5615 5613 5612 5611 5611 5610 5609 5608 5608 5608 5608 5609 5609 5609 5608 5607 5608 5612 5612 5613 5615 5616 5618 5618 5619 5619 5620 5620 5620 5619 5619 5619 5619 5620
5617 5615 5614 5613 5611 5609 5607 5606 5606 5606 5604 5603 5603 5603 5603 5604 5603 5603 5602 5601 5602 5605 5605 5606 5609 5610 5613 5615 5616 5616 5616 5615 5615 5615 5614 5614 5614 5615
5613 5611 5609 5607 5605 5603 5602 5601 5601 5601 5600 5599 5599 5600 5600 5600 5599 5598 5598 5597 5599 5600 5601 5599 5602 5604 5608 5610 5610 5611 5611 5610 5610 5610 5609 5609 5609 5609
5609 5607 5605 5602 5599 5597 5597 5596 5596 5596 5596 5595 5595 5595 5595 5594 5593 5592 5591 5590 5590 5593 5596 5595 5596 5598 5600 5602 5603 5603 5604 5604 5604 5604 5604 5604 5603 5602
5606 5604 5600 5598 5595 5592 5591 5590 5589 5590 5590 5591 5590 5590 5590 5589 5588 5587 5587 5585 5585 5587 5591 5590 5591 5591 5591 5594 5595 5595 5595 5595 5596 5597 5597 5597 5596 5595
5601 5600 5597 5593 5590 5588 5586 5585 5585 5585 5585 5586 5586 5587 5586 5585 5585 5584 5584 5583 5582 5583 5586 5586 5585 5585 5584 5585 5588 5589 5589 5589 5589 5590 5590 5591 5590 5589
5596 5595 5593 5589 5587 5584 5583 5582 5582 5581 5581 5582 5581 5581 5580 5580 5580 5581 5580 5580 5580 5581 5581 5581 5579 5579 5577 5577 5579 5581 5582 5584 5584 5584 5585 5585 5584 5584
5592 5590 5588 5585 5583 5582 5580 5579 5577 5576 5576 5576 5576 5576 5576 5576 5576 5575 5576 5576 5576 5576 5576 5576 5575 5574 5573 5571 5572 5574 5574 5576 5577 5578 5579 5579 5578 5578
5588 5586 5584 5582 5580 5579 5578 5576 5574 5573 5572 5571 5571 5571 5571 5571 5570 5570 5569 5569 5568 5568 5570 5570 5570 5569 5567 5567 5567 5567 5567 5567 5569 5570 5571 5572 5572 5572
5583 5583 5582 5580 5578 5576 5575 5573 5572 5569 5567 5566 5565 5565 5565 5565 5565 5565 5564 5563 5561 5561 5561 5563 5563 5563 5562 5561 5560 5560 5561 5562 5562 5563 5563 5563 5564 5565
5579 5579 5578 5577 5575 5573 5571 5569 5567 5565 5563 5561 5560 5560 5559 5559 5558 5558 5557 5556 5555 5555 5555 5555 5555 5554 5553 5553 5553 5554 5554 5555 5555 5555 5555 5554 5555 5556
5576 5576 5575 5573 5571 5569 5567 5565 5563 5561 5558 5556 5555 5554 5553 5552 5551 5550 5550 5549 5548 5549 5549 5549 5548 5547 5545 5545 5546 5546 5546 5546 5547 5547 5547 5547 5546 5546
5576 5574 5572 5570 5568 5565 5563 5560 5558 5556 5554 5551 5550 5549 5548 5546 5544 5543 5543 5542 5541 5541 5541 5542 5541 5540 5539 5538 5538 5538 5538 5539 5539 5538 5539 5538 5537 5537
5574 5571 5568 5566 5564 5562 5559 5557 5554 5551 5549 5547 5545 5544 5542 5541 5539 5537 5536 5535 5535 5535 5535 5535 5535 5535 5534 5533 5532 5532 5532 5532 5533 5532 5533 5531 5530 5529
5570 5567 5564 5561 5559 5556 5554 5552 5549 5547 5544 5541 5540 5538 5536 5535 5533 5532 5531 5530 5530 5530 5530 5531 5531 5530 5529 5528 5527 5526 5526 5526 5526 5526 5527 5527 5526 5525
5566 5563 5560 5556 5553 5550 5548 5546 5544 5541 5539 5536 5534 5532 5531 5530 5529 5528 5527 5526 5526 5527 5527 5528 5528 5527 5526 5525 5524 5523 5522 5521 5521 5520 5519 5520 5520 5520